Find Starlink 31404

NORAD ID: 59521 Int'l Des: 2024-073 Owner: SPXS Country: US Constellation: starlink operational
LEOCIRCULAR

リアルタイム位置

3D地球を読み込み中...

Starlink 31404について

説明を読み込み中...

次回通過

Passes for default location (London). Set your location on the main map for personalized predictions.

高度履歴

Loading altitude history...

軌道要素

1 59521U 24073L 26124.93443723 -.00032633 00000-0 -11850-2 0 9994
2 59521 43.0023 0.7096 0001573 329.3192 30.7567 15.27483863114778
Epoch: May 4, 2026 • Age: 16 hours

現在のステータス

高度 487.1 km
速度 7.63 km/s
衛星直下点 42.14°N, 20.21°E
打ち上げ日 Apr 17, 2024
運用期間 2 years
タイプ internet

技術仕様

分類 Payload
質量 730.00 kg
乾燥質量 700.00 kg
総質量 730.00 kg
長さ 0.30 m
直径 4.10 m
スパン 29.00 m
形状 Box + pan
製造者 SPXS
バスタイプ Starlink V2M
フェーズステータス In Orbit
所有者/国 SPXS/US

Most Searched